Tracking 19576 objects as of 17-Feb-2019
HD Live streaming from Space Station
objects crossing your sky now

COSMOS 1249 COOLANT

Track COSMOS 1249 COOLANT now!
10-day predictions


NORAD ID: 26510
Int'l Code: 1981-021M
Perigee: 902.7 km
Apogee: 962.9 km
Inclination: 65.0 °
Period: 103.5 minutes
Semi major axis: 7303 km
RCS: 0.0055 m2 (small)
Launch date: March 5, 1981
Source: Commonwealth of Independent States (former USSR) (CIS)
Launch site: TYURATAM MISSILE AND SPACE COMPLEX (TTMTR)

Note: This is SATELLITE DEBRIS
aabbcc
Your satellite tracking list
Your tracking list is empty




NASA's NSSDC Master Catalog

Two Line Element Set (TLE):
1 26510U 81021M   19046.68949281 -.00000042  00000-0  38658-4 0  9994
2 26510  64.9646 149.7941 0041228  21.1492  48.8685 13.90842553960196
Source of the keplerian elements: AFSPC